Вернуться в каталог

DELTA 1 DEB

АктивенSSO
NORAD 26701·DEBRIS·🇺🇸 United States

Запущен Jun 12, 1975 с Vandenberg Space Force Base

Loading…

Ближайшие Пролёты (ближайшие 24 часа)

TLE

СвежийSource: Space-Track

Эпоха: Sep 14, 2026, 02:49 UTC

1 26701U 75052KB  26257.11780983  .00000394  00000-0  50849-3 0  9999
2 26701  99.7469 126.2706 0259472  44.7109 105.1389 13.55467029274181

Отслеживайте DELTA 1 DEB в реальном времени с AllMySat

Download on the App Store